Back to catalog

CZ-6A DEB

AlivePO
NORAD 60894·DEBRIS·🇨🇳 China

Launched Aug 6, 2024 from Taiyuan Satellite Launch Center

Loading…

Next Passes (next 24 hours)

TLE

FreshSource: Space-Track

Epoch: Sep 14, 2026, 11:29 UTC

1 60894U 24140KZ  26257.47878827  .00000465  00000-0  23003-3 0  9997
2 60894  89.0472 270.0969 0073049 297.5706  61.8074 14.14516269106935

Track CZ-6A DEB in real time with AllMySat

Download on the App Store